Flag for Germany Weather past 2 weeks in Mörfelden-Walldorf, Hesse, Germany

Now
45 °F

Light rain. Passing clouds.


Feels Like: 38 °F
Forecast: 47 / 55 °F
Wind: 15 mph from West

Location: Frankfurt-M-Flughafen Airport

Current Time: Oct 22, 2014 at 7:03:23 AM

Latest Report: Oct 22, 2014 at 6:20 AM


Visibility: N/A

Pressure: 29.92 "Hg

Humidity: 81%

Dew point: 39 °F

Location of Mörfelden-WalldorfLocation

Historic Weather in Mörfelden-Walldorf — Graph

°F

Mörfelden-Walldorf temperature yesterday

Maximum temperature yesterday: 59 °F (at 1:50 PM)
Minimum temperature yesterday: 45 °F (at 4:20 AM)
Average temperature yesterday: 51 °F

Past Weeks' High & Low Weather Summary

 TemperatureHumidityPressure
High72 °F (Oct 19, 3:50 PM)100% (Oct 7, 5:20 AM)30.18 "Hg (Oct 7, 5:20 AM)
Low45 °F (Oct 21, 4:20 AM)60% (Oct 20, 1:50 PM)29.56 "Hg (Oct 21, 5:50 PM)
Average58 °F91%29.89 "Hg
* Reported Oct 7 5:20 AM — Oct 22 5:50 AM, Mörfelden-Walldorf, Weather by CustomWeather, © 2014

Note: Actual official high and low records may vary slightly from our data, if they occured in-between our weather recording intervals... More about our weather records

Advertising

Mörfelden-Walldorf weather history for previous 24 hours

 ConditionsComfort  
Time TempWeatherWind HumidityBarometerVisibility
5:50 AM
Oct 22
45 °FPassing clouds.13 mph81%29.92 "HgN/A
5:20 AM45 °FPartly cloudy.16 mph81%29.92 "HgN/A
4:50 AM46 °FSprinkles. Partly cloudy.14 mph82%29.92 "HgN/A
4:20 AM46 °FPassing clouds.12 mph76%29.92 "HgN/A
3:50 AM46 °FSprinkles. Passing clouds.15 mph76%29.92 "HgN/A
3:20 AM48 °FPassing clouds.12 mph71%29.89 "HgN/A
2:50 AM48 °FPassing clouds.15 mph71%29.89 "HgN/A
2:20 AM48 °FPassing clouds.13 mph71%29.89 "HgN/A
1:50 AM48 °FPassing clouds.12 mph71%29.89 "HgN/A
1:20 AM48 °FPassing clouds.15 mph71%29.89 "HgN/A
12:50 AM48 °FPassing clouds.16 mph71%29.86 "HgN/A
12:20 AM48 °FPassing clouds.17 mph71%29.83 "HgN/A
11:50 PM
Oct 21
48 °FPassing clouds.16 mph71%29.83 "HgN/A
11:20 PM48 °FPassing clouds.21 mph71%29.80 "HgN/A
10:50 PM48 °FClear.24 mph71%29.77 "Hg10 mi
10:20 PM48 °FPassing clouds.22 mph76%29.77 "HgN/A
9:50 PM48 °FPartly cloudy.18 mph76%29.74 "HgN/A
9:20 PM48 °FPassing clouds.16 mph82%29.74 "HgN/A
8:50 PM48 °FPassing clouds.15 mph82%29.71 "HgN/A
8:20 PM50 °FPartly cloudy.24 mph76%29.71 "HgN/A
7:50 PM52 °FPartly cloudy.14 mph82%29.65 "HgN/A
7:20 PM52 °FBroken clouds.17 mph82%29.65 "HgN/A
6:50 PM52 °FSprinkles. Broken clouds.12 mph94%29.62 "HgN/A
6:20 PM52 °FRain showers. Broken clouds.36 mph88%29.59 "Hg2 mi
5:50 PM57 °FLight rain. Partly sunny.17 mph82%29.56 "HgN/A
5:20 PM57 °FLight rain. Broken clouds.20 mph82%29.59 "HgN/A
4:50 PM57 °FPartly sunny.17 mph82%29.62 "HgN/A
4:20 PM57 °FSprinkles. Partly sunny.18 mph82%29.65 "HgN/A
3:50 PM59 °FPartly sunny.18 mph68%29.65 "HgN/A
3:20 PM59 °FPartly sunny.21 mph68%29.68 "HgN/A
2:50 PM57 °FLight rain. Partly sunny.16 mph77%29.71 "HgN/A
2:20 PM59 °FPartly sunny.21 mph68%29.71 "HgN/A
1:50 PM59 °FPartly sunny.18 mph72%29.74 "HgN/A
1:20 PM57 °FPartly sunny.15 mph77%29.77 "HgN/A
12:50 PM57 °FBroken clouds.14 mph72%29.77 "HgN/A
12:20 PM57 °FSprinkles. Broken clouds.13 mph72%29.80 "HgN/A
11:50 AM57 °FBroken clouds.14 mph77%29.83 "HgN/A
11:20 AM55 °FBroken clouds.3 mph88%29.86 "HgN/A
10:50 AM54 °FBroken clouds.3 mph88%29.86 "HgN/A
10:20 AM52 °FPartly sunny.6 mph94%29.86 "HgN/A
9:50 AM52 °FScattered clouds.3 mph94%29.89 "HgN/A
9:20 AM50 °FScattered clouds.5 mph94%29.89 "HgN/A
8:50 AM48 °FPassing clouds.7 mph100%29.89 "HgN/A
8:20 AM48 °FPassing clouds.5 mph94%29.89 "HgN/A
7:50 AM48 °FPartly cloudy.5 mph94%29.92 "HgN/A
7:20 AM48 °FPartly cloudy.7 mph94%29.89 "HgN/A
Weather by CustomWeather, © 2014

See weather overviewHow to use our weather pages